GW2684 Weather Reports


Display with metric or nautical units.
time (UTC)temp
F
wind
direction
speed
MPH
gust
MPH
rain 1hr
in
rain 24hr
in
rain mn
in
humidity
%
barometer
mb
20260510191548 83 172 2.0 7.0 0.00 0.06 0.01 71 1015.4
20260510191036 82 194 3.0 7.0 0.00 0.06 0.01 71 1015.5
20260510190535 83 250 1.0 4.0 0.00 0.06 0.01 70 1015.6
20260510190052 82 5 1.0 5.0 0.00 0.06 0.01 70 1015.6
20260510185535 82 72 2.0 5.0 0.00 0.06 0.01 70 1015.8
20260510185035 82 113 2.0 5.0 0.00 0.06 0.01 69 1015.8
20260510184611 82 48 1.0 7.0 0.00 0.06 0.01 70 1015.9
20260510184036 82 139 2.0 7.0 0.00 0.06 0.01 71 1016.0
20260510183536 82 176 1.0 7.0 0.00 0.06 0.01 70 1016.1
20260510183046 82 188 0.0 3.0 0.00 0.06 0.01 72 1016.2
20260510182536 82 0 0.0 4.0 0.00 0.06 0.01 71 1016.2
20260510182036 81 0 0.0 6.0 0.00 0.06 0.01 70 1016.2
20260510181555 81 217 2.0 6.0 0.00 0.06 0.01 70 1016.2
20260510181035 82 101 2.0 5.0 0.00 0.06 0.01 70 1016.3
20260510180535 82 192 1.0 7.0 0.00 0.06 0.01 72 1016.4
20260510180105 81 321 2.0 7.0 0.00 0.06 0.01 72 1016.5
20260510175534 81 0 1.0 7.0 0.00 0.06 0.01 71 1016.5
20260510175036 81 257 1.0 6.0 0.00 0.06 0.01 70 1016.5
20260510174547 81 252 2.0 7.0 0.00 0.06 0.01 71 1016.5
20260510174036 80 296 3.0 8.0 0.00 0.06 0.01 72 1016.5
20260510173538 80 0 1.0 8.0 0.00 0.06 0.01 72 1016.7
20260510173048 80 328 2.0 6.0 0.00 0.06 0.01 73 1016.7
20260510172536 80 269 3.0 6.0 0.00 0.06 0.01 72 1016.8
20260510172036 80 0 2.0 8.0 0.00 0.06 0.01 74 1017.0
20260510171602 80 261 3.0 8.0 0.00 0.06 0.01 75 1016.9
20260510171034 80 248 3.0 8.0 0.00 0.06 0.01 75 1017.0
20260510170532 79 286 3.0 7.0 0.00 0.06 0.01 76 1017.0
20260510170047 79 38 2.0 7.0 0.00 0.06 0.01 76 1017.1
20260510165533 79 63 0.0 5.0 0.00 0.25 0.01 74 1017.1
20260510165033 80 105 2.0 5.0 0.00 0.25 0.01 74 1017.1
20260510164549 80 283 2.0 6.0 0.00 0.25 0.01 72 1017.1
20260510164032 80 61 4.0 6.0 0.00 0.25 0.01 75 1017.1
20260510163533 79 5 2.0 9.0 0.00 0.25 0.01 75 1017.1
20260510163042 79 360 3.0 9.0 0.00 0.25 0.01 77 1017.0
20260510162539 79 91 2.0 7.0 0.00 0.25 0.01 78 1016.8
20260510162033 79 51 3.0 7.0 0.00 0.25 0.01 78 1016.8
20260510161547 78 0 1.0 6.0 0.00 0.25 0.01 78 1017.0
20260510161033 78 351 1.0 4.0 0.00 0.25 0.01 80 1017.0
20260510160534 78 0 1.0 5.0 0.00 0.25 0.01 79 1017.1
20260510160052 77 96 0.0 6.0 0.00 0.25 0.01 79 1017.0
20260510155534 77 72 2.0 6.0 0.00 0.45 0.01 81 1017.0
20260510155033 77 51 2.0 4.0 0.00 0.45 0.01 79 1016.8
20260510154602 77 0 1.0 5.0 0.00 0.45 0.01 82 1016.8
20260510154033 77 348 1.0 5.0 0.00 0.45 0.01 82 1016.8
20260510153532 77 0 2.0 5.0 0.00 0.45 0.01 84 1016.8
20260510153056 77 315 0.0 4.0 0.00 0.45 0.01 82 1016.9
20260510152533 76 54 0.0 6.0 0.00 0.45 0.01 84 1017.0
20260510152032 76 0 1.0 6.0 0.00 0.45 0.01 85 1017.0
20260510151542 76 73 2.0 6.0 0.00 0.45 0.01 86 1017.1
20260510151035 75 0 1.0 5.0 0.00 0.45 0.01 85 1017.0
20260510150536 75 74 2.0 5.0 0.00 0.45 0.01 86 1017.1
20260510150106 75 40 1.0 4.0 0.00 0.45 0.01 88 1017.1
20260510145535 75 5 1.0 4.0 0.00 0.96 0.01 91 1017.2
20260510145033 74 355 1.0 4.0 0.00 0.96 0.01 93 1017.1
20260510144608 73 17 1.0 4.0 0.00 0.96 0.01 94 1017.2
20260510144036 72 0 1.0 5.0 0.00 0.96 0.01 96 1017.1
20260510143535 71 20 2.0 5.0 0.00 0.96 0.01 97 1017.2
20260510143046 71 28 2.0 5.0 0.00 0.96 0.01 97 1017.4
20260510142537 71 333 0.0 4.0 0.00 0.96 0.01 99 1017.4
20260510142033 71 86 1.0 4.0 0.00 0.96 0.01 99 1017.5
20260510141548 70 0 0.0 4.0 0.00 0.96 0.01 99 1017.4
20260510141032 70 0 0.0 4.0 0.00 0.96 0.01 99 1017.3
20260510140534 70 0 1.0 4.0 0.00 0.96 0.01 100 1017.3
20260510140044 69 113 1.0 3.0 0.00 0.96 0.01 100 1017.1
20260510135535 69 0 0.0 2.0 0.00 0.97 0.01 100 1017.0
20260510135037 69 0 0.0 2.0 0.00 0.97 0.01 99 1017.0
20260510134550 68 133 0.0 2.0 0.00 0.97 0.01 100 1016.9
20260510134035 68 0 0.0 2.0 0.00 0.97 0.01 100 1016.9
20260510133535 68 19 0.0 2.0 0.00 0.97 0.01 100 1016.9
20260510133047 67 0 0.0 2.0 0.00 0.97 0.01 100 1016.9
20260510132533 67 0 0.0 3.0 0.00 0.97 0.01 99 1016.8
20260510132036 67 0 1.0 3.0 0.00 0.97 0.01 99 1016.9
20260510131541 67 0 1.0 4.0 0.00 0.97 0.01 99 1016.8
20260510131032 67 28 1.0 4.0 0.00 0.97 0.01 99 1016.7
20260510130536 67 20 1.0 4.0 0.00 0.97 0.01 100 1016.8
20260510130047 67 22 0.0 3.0 0.00 0.97 0.01 100 1016.8
20260510125533 66 23 1.0 4.0 0.00 1.05 0.01 99 1016.7
20260510125035 66 0 0.0 4.0 0.00 1.05 0.01 100 1016.7
20260510124548 66 351 1.0 4.0 0.00 1.05 0.01 100 1016.7
20260510124036 66 337 1.0 4.0 0.00 1.05 0.01 100 1016.6
20260510123532 66 9 0.0 3.0 0.00 1.05 0.01 100 1016.5
20260510123053 66 15 1.0 4.0 0.00 1.05 0.01 99 1016.3
20260510122536 66 83 0.0 4.0 0.00 1.05 0.01 99 1016.4
20260510122035 65 0 2.0 4.0 0.00 1.05 0.01 99 1016.3
20260510121546 65 0 0.0 5.0 0.00 1.05 0.01 100 1016.1
20260510121039 65 93 1.0 5.0 0.00 1.05 0.01 99 1016.1
20260510120533 65 71 1.0 3.0 0.00 1.05 0.01 99 1015.8
20260510120040 65 0 0.0 0.0 0.00 1.05 0.01 99 1015.8
20260510115532 65 0 0.0 0.0 0.00 1.07 0.01 99 1015.8
20260510115035 65 0 0.0 0.0 0.00 1.07 0.01 100 1015.6
20260510114551 65 0 0.0 0.0 0.00 1.07 0.01 100 1015.5
20260510114032 64 0 0.0 0.0 0.00 1.07 0.01 99 1015.4
20260510113532 64 0 0.0 0.0 0.00 1.07 0.01 99 1015.3
20260510113044 64 0 0.0 0.0 0.00 1.07 0.01 99 1015.4
20260510112533 64 0 0.0 1.0 0.00 1.07 0.01 99 1015.3
20260510112035 64 0 0.0 1.0 0.00 1.07 0.01 99 1015.3
20260510111547 64 0 0.0 1.0 0.00 1.07 0.01 99 1015.3
20260510111038 64 0 0.0 0.0 0.00 1.07 0.01 99 1015.2
20260510110536 64 0 0.0 0.0 0.00 1.07 0.01 99 1015.1
20260510110051 64 0 0.0 0.0 0.00 1.07 0.01 99 1014.9
20260510105537 64 0 0.0 0.0 0.00 1.07 0.01 99 1014.9
20260510105037 64 0 0.0 2.0 0.00 1.07 0.01 99 1014.8
20260510104554 64 0 0.0 2.0 0.00 1.07 0.01 99 1014.8
20260510104036 65 0 0.0 2.0 0.00 1.07 0.01 99 1014.8
20260510103533 65 0 0.0 0.0 0.00 1.07 0.01 99 1014.7
20260510103045 65 0 0.0 3.0 0.00 1.07 0.01 99 1014.6
20260510102533 65 0 0.0 3.0 0.00 1.07 0.01 99 1014.6
20260510102032 65 355 0.0 2.0 0.00 1.07 0.01 99 1014.5
20260510101550 65 0 0.0 2.0 0.00 1.07 0.01 99 1014.5
20260510101033 65 0 0.0 2.0 0.00 1.07 0.01 99 1014.6
20260510100532 65 103 0.0 0.0 0.00 1.07 0.01 99 1014.5
20260510100052 65 0 0.0 0.0 0.00 1.07 0.01 99 1014.4
20260510095533 65 0 0.0 0.0 0.00 1.07 0.01 99 1014.3
20260510095035 65 0 0.0 2.0 0.00 1.07 0.01 99 1014.2
20260510094557 65 0 0.0 2.0 0.00 1.07 0.01 99 1014.1
20260510094032 65 0 0.0 0.0 0.00 1.07 0.01 99 1013.8
20260510093535 65 0 0.0 0.0 0.00 1.07 0.01 99 1013.8
20260510093051 65 0 0.0 0.0 0.00 1.07 0.01 99 1013.7
20260510092536 65 0 0.0 0.0 0.00 1.07 0.01 99 1013.8
20260510092036 65 0 0.0 0.0 0.00 1.07 0.01 99 1013.7
20260510091544 65 0 0.0 1.0 0.00 1.07 0.01 99 1013.8
20260510091032 65 0 0.0 1.0 0.00 1.07 0.01 99 1013.9
20260510090533 66 0 0.0 2.0 0.00 1.07 0.01 99 1013.7
20260510090045 66 0 0.0 2.0 0.00 1.07 0.01 99 1013.6
20260510085532 66 0 0.0 2.0 0.00 1.07 0.01 99 1013.6
20260510085033 66 17 0.0 0.0 0.00 1.07 0.01 99 1013.7
20260510084559 66 0 0.0 1.0 0.00 1.07 0.01 99 1013.6
20260510084033 66 0 0.0 2.0 0.00 1.07 0.01 99 1013.6
20260510083536 66 0 0.0 2.0 0.00 1.07 0.01 99 1013.6
20260510083111 66 0 0.0 3.0 0.00 1.07 0.01 99 1013.6
20260510082536 66 355 0.0 4.0 0.00 1.07 0.01 99 1013.4
20260510082035 66 355 1.0 4.0 0.00 1.07 0.01 99 1013.4
20260510081605 66 0 0.0 0.0 0.00 1.07 0.01 99 1013.3
20260510081036 66 0 0.0 0.0 0.00 1.07 0.01 99 1013.2
20260510080536 66 0 0.0 0.0 0.00 1.07 0.01 99 1013.0
20260510080044 66 0 0.0 0.0 0.00 1.07 0.01 99 1012.9
20260510075535 66 0 0.0 0.0 0.00 1.08 0.01 99 1012.9
20260510075035 66 0 0.0 0.0 0.00 1.08 0.01 99 1012.9
20260510074545 66 0 0.0 0.0 0.00 1.08 0.01 99 1012.9
20260510074036 66 0 0.0 0.0 0.00 1.08 0.01 99 1012.9
20260510073535 66 0 0.0 0.0 0.00 1.08 0.01 99 1012.8
20260510073051 66 0 0.0 0.0 0.00 1.08 0.01 99 1013.0
20260510072535 66 0 0.0 0.0 0.00 1.08 0.01 99 1012.9
20260510072038 66 0 0.0 0.0 0.00 1.08 0.01 99 1012.7
20260510071550 66 0 0.0 0.0 0.00 1.08 0.01 99 1012.8
20260510071036 66 0 0.0 0.0 0.00 1.08 0.01 99 1012.8
20260510070537 66 0 0.0 0.0 0.00 1.08 0.01 99 1012.7
20260510070049 66 0 0.0 0.0 0.00 1.08 0.01 99 1012.5
20260510065534 66 0 0.0 0.0 0.00 1.08 0.01 99 1012.7
20260510065037 66 0 0.0 2.0 0.00 1.08 0.01 99 1012.7
20260510064549 66 0 0.0 2.0 0.00 1.08 0.01 99 1012.6
20260510064034 66 96 0.0 3.0 0.00 1.08 0.01 99 1012.7
20260510063534 66 107 0.0 3.0 0.00 1.08 0.01 99 1012.8
20260510063052 66 117 0.0 3.0 0.00 1.08 0.01 99 1012.8
20260510062534 66 0 0.0 2.0 0.00 1.08 0.01 99 1012.8
20260510062035 66 0 0.0 1.0 0.00 1.08 0.01 99 1012.9
20260510061556 66 0 0.0 0.0 0.00 1.08 0.01 99 1013.0
20260510061034 66 0 0.0 0.0 0.01 1.08 0.01 99 1013.2
20260510060534 66 0 0.0 0.0 0.01 1.08 0.01 99 1013.4
20260510060047 66 0 0.0 0.0 0.01 1.08 0.01 99 1013.5
20260510055533 66 0 0.0 0.0 0.01 1.08 0.01 98 1013.5
20260510055034 66 0 0.0 0.0 0.01 1.08 0.01 98 1013.5
20260510054542 66 0 0.0 0.0 0.01 1.08 0.01 98 1013.4
20260510054034 66 0 0.0 0.0 0.01 1.08 0.01 98 1013.5
20260510053536 66 0 0.0 0.0 0.01 1.08 0.01 98 1013.6
20260510053049 67 0 0.0 0.0 0.01 1.08 0.01 98 1013.7
20260510052534 67 0 0.0 0.0 0.01 1.08 0.01 98 1013.8
20260510052036 67 0 0.0 0.0 0.01 1.08 0.01 98 1013.7
20260510051547 67 0 0.0 0.0 0.01 1.08 0.01 98 1013.8
20260510051034 67 0 0.0 0.0 0.00 1.07 0.00 98 1014.0
20260510050537 67 0 0.0 0.0 0.00 1.07 0.00 98 1013.8
20260510050051 67 0 0.0 0.0 0.00 1.07 0.00 98 1013.8
20260510045533 67 0 0.0 0.0 0.00 1.09 1.07 98 1013.8
20260510045034 67 0 0.0 1.0 0.00 1.09 1.07 98 1013.6
20260510044549 67 0 0.0 4.0 0.00 1.09 1.07 98 1013.5
20260510044034 67 0 0.0 4.0 0.00 1.09 1.07 98 1013.2
20260510043535 67 107 1.0 4.0 0.00 1.09 1.07 98 1013.2
20260510043045 67 105 1.0 4.0 0.00 1.09 1.07 98 1013.4
20260510042535 68 0 0.0 0.0 0.00 1.09 1.07 98 1013.9
20260510042038 68 0 0.0 0.0 0.00 1.09 1.07 98 1014.0
20260510041548 68 0 0.0 0.0 0.00 1.09 1.07 98 1014.2
20260510041036 68 0 0.0 0.0 0.00 1.09 1.07 98 1014.1
20260510040536 68 0 0.0 0.0 0.00 1.09 1.07 98 1014.0
20260510040046 68 0 0.0 0.0 0.00 1.09 1.07 98 1014.1
20260510035536 68 0 0.0 0.0 0.00 1.09 1.07 98 1014.3
20260510035036 68 0 0.0 0.0 0.00 1.09 1.07 98 1014.1
20260510034545 68 0 0.0 0.0 0.00 1.09 1.07 98 1014.2
20260510034036 68 0 0.0 0.0 0.00 1.09 1.07 98 1014.2
20260510033534 68 0 0.0 0.0 0.00 1.09 1.07 98 1014.3
20260510033046 68 0 0.0 0.0 0.00 1.09 1.07 98 1014.4
20260510032535 68 0 0.0 0.0 0.00 1.09 1.07 98 1014.2
20260510032037 68 0 0.0 0.0 0.00 1.09 1.07 98 1014.1
20260510031558 68 0 0.0 0.0 0.00 1.09 1.07 98 1014.0
20260510031035 68 0 0.0 0.0 0.00 1.09 1.07 98 1013.9
20260510030535 68 0 0.0 0.0 0.00 1.09 1.07 98 1013.8
20260510030048 68 0 0.0 0.0 0.00 1.09 1.07 98 1013.8
20260510025535 68 0 0.0 0.0 0.01 1.10 1.07 98 1013.8
20260510025035 68 0 0.0 0.0 0.01 1.10 1.07 98 1013.8
20260510024548 68 0 0.0 0.0 0.01 1.10 1.07 98 1013.6
20260510024035 68 0 0.0 3.0 0.01 1.10 1.07 98 1013.6
20260510023535 68 0 0.0 3.0 0.01 1.10 1.07 98 1013.5
20260510023047 68 74 1.0 3.0 0.01 1.10 1.07 98 1013.4
20260510022538 68 0 0.0 3.0 0.01 1.10 1.07 98 1013.5
20260510022038 68 0 0.0 0.0 0.01 1.10 1.07 98 1013.3
20260510021549 68 0 0.0 3.0 0.01 1.10 1.07 98 1013.5
20260510021032 68 0 0.0 3.0 0.01 1.10 1.07 98 1013.5
20260510020536 68 0 0.0 3.0 0.01 1.10 1.07 98 1013.7
20260510020047 68 0 0.0 3.0 0.01 1.10 1.07 98 1013.6
20260510015536 68 51 1.0 4.0 0.00 1.14 1.05 98 1013.5
20260510015037 68 0 0.0 4.0 0.00 1.14 1.05 98 1013.3
20260510014547 68 92 1.0 4.0 0.00 1.14 1.05 98 1013.3
20260510014036 68 122 1.0 4.0 0.00 1.14 1.05 98 1013.2
20260510013537 68 109 0.0 3.0 0.00 1.14 1.05 98 1013.3
20260510013058 68 0 0.0 3.0 0.00 1.14 1.05 98 1013.6
20260510012538 68 0 0.0 3.0 0.00 1.14 1.05 98 1013.5
20260510012038 68 96 0.0 2.0 0.00 1.14 1.05 98 1013.5
20260510011546 68 123 1.0 2.0 0.01 1.14 1.05 98 1013.4
20260510011037 68 124 0.0 0.0 0.01 1.14 1.05 98 1013.6
20260510010536 68 0 0.0 0.0 0.01 1.14 1.05 97 1013.7
20260510010044 68 0 0.0 0.0 0.01 1.14 1.05 97 1013.7
20260510005536 68 0 0.0 0.0 0.01 1.15 1.05 97 1013.7
20260510005035 68 0 0.0 2.0 0.01 1.15 1.05 97 1013.9
20260510004545 68 0 0.0 3.0 0.01 1.15 1.05 97 1013.9
20260510004036 68 40 0.0 4.0 0.01 1.15 1.05 97 1013.8
20260510003536 68 0 0.0 4.0 0.01 1.15 1.05 97 1013.8
20260510003050 68 337 2.0 5.0 0.02 1.15 1.05 97 1013.5
20260510002538 68 323 2.0 6.0 0.02 1.15 1.05 97 1013.4
20260510002035 68 355 3.0 6.0 0.02 1.15 1.05 97 1013.0
20260510001547 69 29 2.0 4.0 0.01 1.14 1.04 97 1012.7
20260510001035 69 105 1.0 4.0 0.02 1.14 1.04 97 1012.7
20260510000536 68 0 1.0 4.0 0.02 1.14 1.04 97 1012.8
20260510000048 68 46 2.0 9.0 0.02 1.14 1.04 96 1012.9
20260509235535 68 5 3.0 9.0 0.02 1.16 1.04 96 1012.8
20260509235033 68 352 3.0 11.0 0.02 1.16 1.04 97 1012.8
20260509234545 68 121 5.0 11.0 0.02 1.16 1.04 97 1011.8
20260509234035 68 148 5.0 11.0 0.03 1.16 1.04 97 1011.6
20260509233534 69 144 5.0 10.0 0.03 1.16 1.04 97 1011.7
20260509233046 69 127 4.0 8.0 0.02 1.15 1.04 97 1011.8
20260509232536 69 134 2.0 6.0 0.02 1.15 1.04 96 1012.1
20260509232036 69 130 2.0 4.0 0.02 1.15 1.04 96 1012.2
20260509231555 69 139 2.0 4.0 0.02 1.15 1.04 96 1012.3
20260509231036 69 103 1.0 4.0 0.01 1.14 1.03 96 1012.4
20260509230536 69 111 2.0 5.0 0.01 1.14 1.03 95 1012.5
20260509230047 69 105 1.0 5.0 0.01 1.14 1.03 96 1012.6
20260509225536 69 101 1.0 3.0 0.01 1.16 1.03 95 1012.6
20260509225036 69 0 0.0 2.0 0.01 1.16 1.03 95 1013.0
20260509224547 69 0 0.0 1.0 0.01 1.16 1.03 95 1013.0
20260509224035 69 0 0.0 1.0 0.00 1.15 1.02 95 1012.9
20260509223535 69 0 0.0 2.0 0.00 1.15 1.02 95 1013.1
20260509223046 69 0 0.0 3.0 0.00 1.15 1.02 95 1012.9
20260509222535 69 0 1.0 3.0 0.00 1.15 1.02 95 1012.8
20260509222036 69 93 2.0 3.0 0.00 1.15 1.02 94 1012.5
20260509221545 69 39 0.0 3.0 0.00 1.15 1.02 94 1012.6
20260509221036 69 0 0.0 3.0 0.00 1.15 1.02 94 1012.5
20260509220537 69 39 1.0 4.0 0.00 1.15 1.02 94 1012.3
20260509220051 70 39 1.0 6.0 0.00 1.15 1.02 94 1012.4
20260509215536 70 32 2.0 6.0 0.00 1.20 1.02 94 1012.6
20260509215036 70 360 0.0 5.0 0.00 1.20 1.02 94 1012.5
20260509214542 70 334 3.0 5.0 0.00 1.20 1.02 94 1012.8
20260509214036 70 332 1.0 4.0 0.00 1.20 1.02 94 1012.7
20260509213536 70 352 2.0 5.0 0.00 1.20 1.02 94 1012.6
20260509213051 70 55 2.0 6.0 0.00 1.20 1.02 93 1012.3
20260509212535 70 63 2.0 6.0 0.00 1.20 1.02 93 1012.2
20260509212032 70 123 2.0 5.0 0.00 1.20 1.02 93 1011.9
20260509211549 70 44 1.0 3.0 0.00 1.20 1.02 93 1012.3
20260509211036 70 215 1.0 3.0 0.00 1.20 1.02 92 1012.2
20260509210535 70 183 1.0 4.0 0.00 1.20 1.02 92 1012.5
20260509210053 70 132 0.0 8.0 0.00 1.20 1.02 92 1012.4
20260509205535 70 35 2.0 8.0 0.00 1.20 1.02 91 1012.7
20260509205032 71 333 2.0 8.0 0.00 1.20 1.02 90 1012.7
20260509204554 71 298 2.0 4.0 0.00 1.20 1.02 90 1012.7
20260509204036 71 271 1.0 4.0 0.00 1.20 1.02 90 1012.3
20260509203532 71 336 1.0 4.0 0.00 1.20 1.02 89 1012.7
20260509203050 71 303 1.0 4.0 0.00 1.20 1.02 89 1012.7
20260509202534 71 0 1.0 4.0 0.00 1.20 1.02 89 1012.2
20260509202037 71 355 1.0 4.0 0.00 1.20 1.02 89 1012.2
20260509201548 71 360 1.0 3.0 0.00 1.20 1.02 89 1012.3
20260509201033 71 301 1.0 5.0 0.00 1.20 1.02 90 1012.1
20260509200533 71 14 2.0 5.0 0.00 1.20 1.02 89 1011.7
20260509200106 71 0 1.0 9.0 0.00 1.20 1.02 89 1011.5
20260509195538 70 339 2.0 10.0 0.00 1.20 1.02 89 1011.2
20260509195033 70 173 6.0 10.0 0.00 1.20 1.02 89 1010.3
20260509194546 71 154 3.0 9.0 0.00 1.20 1.02 89 1010.1
20260509194033 71 94 5.0 9.0 0.00 1.20 1.02 89 1010.1
20260509193533 71 119 1.0 5.0 0.00 1.20 1.02 88 1010.4
20260509193048 71 11 2.0 5.0 0.00 1.20 1.02 89 1010.9
20260509192534 71 5 0.0 6.0 0.00 1.20 1.02 89 1010.9
20260509192037 71 186 3.0 6.0 0.00 1.20 1.02 89 1010.6